This demonstration page uses our WeatherBlox Daily Observations layout. Learn more.

Left ArrowRight Arrow

Hourly Observations for January 30, 2022

Temp ( °F °C ) Dew Point ( °F °C ) Humidity (%) Winds ( mph kmh ) Pressure ( in mb ) Visibility ( mi km ) Precip ( " mm )
12:15 am 00:15 Mostly Cloudy 19 -7 14 -10 79 79 SSE 7 11 30.01 1016 10 16 N/A
12:35 am 00:35 Partly Cloudy 19 -7 14 -10 79 79 S 7 11 30.01 1016 10 16 N/A
12:55 am 00:55 Clear 19 -7 14 -10 79 79 SSE 6 9 30.01 1016 10 16 N/A
1:15 am 01:15 Clear 19 -7 14 -10 79 79 SSE 6 9 30.00 1016 10 16 N/A
1:35 am 01:35 Clear 18 -8 14 -10 86 86 SSE 7 11 29.98 1015 10 16 N/A
1:55 am 01:55 Clear 18 -8 12 -11 79 79 SSE 6 9 29.97 1015 10 16 N/A
2:15 am 02:15 Clear 18 -8 14 -10 86 86 SSE 7 11 29.96 1015 10 16 N/A
2:35 am 02:35 Clear 18 -8 12 -11 79 79 undefined N/A 29.95 1014 10 16 N/A
2:55 am 02:55 Clear 18 -8 12 -11 79 79 SSE 8 13 29.94 1014 10 16 N/A
3:15 am 03:15 Clear 18 -8 12 -11 79 79 SSE 8 13 29.94 1014 10 16 N/A
3:35 am 03:35 Clear 18 -8 12 -11 79 79 SSE 7 11 29.93 1014 10 16 N/A
3:55 am 03:55 Clear 18 -8 12 -11 79 79 SSE 8 13 29.92 1013 10 16 N/A
4:15 am 04:15 Clear 18 -8 12 -11 79 79 SSE 7 11 29.91 1013 10 16 N/A
4:35 am 04:35 Clear 18 -8 12 -11 79 79 SSE 7 11 29.90 1013 10 16 N/A
4:55 am 04:55 Clear 18 -8 12 -11 79 79 SSE 7 11 29.90 1013 10 16 N/A
5:15 am 05:15 Clear 18 -8 12 -11 79 79 SSE 6 9 29.89 1012 10 16 N/A
5:35 am 05:35 Clear 18 -8 12 -11 79 79 S 6 9 29.89 1012 10 16 N/A
5:55 am 05:55 Clear 18 -8 12 -11 79 79 S 6 9 29.89 1012 10 16 N/A
6:15 am 06:15 Clear 18 -8 14 -10 86 86 SSE 6 9 29.88 1012 10 16 N/A
6:35 am 06:35 Clear 18 -8 12 -11 79 79 SSE 5 7 29.88 1012 10 16 N/A
6:55 am 06:55 Clear 18 -8 12 -11 79 79 SSE 5 7 29.88 1012 10 16 N/A
7:15 am 07:15 Clear 18 -8 12 -11 79 79 SSE 6 9 29.88 1012 10 16 N/A
7:35 am 07:35 Clear 16 -9 12 -11 86 86 SSE 3 6 29.90 1012 10 16 N/A
7:55 am 07:55 Sunny 16 -9 12 -11 86 86 SSE 5 7 29.90 1012 10 16 N/A
8:15 am 08:15 Sunny 16 -9 12 -11 86 86 SSE 3 6 29.92 1013 10 16 N/A
8:35 am 08:35 Sunny 18 -8 12 -11 79 79 Calm 29.92 1013 10 16 N/A
8:55 am 08:55 Sunny 18 -8 12 -11 79 79 Calm 29.92 1013 10 16 N/A
9:15 am 09:15 Sunny 19 -7 14 -10 79 79 Calm 29.93 1014 10 16 N/A
9:35 am 09:35 Sunny 21 -6 14 -10 74 74 Calm 29.94 1014 10 16 N/A
9:55 am 09:55 Sunny 23 -5 14 -10 68 68 SW 3 6 29.93 1014 10 16 N/A
10:15 am 10:15 Sunny 25 -4 16 -9 69 69 S 5 7 29.92 1013 10 16 N/A
10:35 am 10:35 Sunny 27 -3 18 -8 69 69 SSW 3 6 29.92 1013 10 16 N/A
10:55 am 10:55 Sunny 28 -2 18 -8 64 64 WSW 3 6 29.91 1013 10 16 N/A
11:15 am 11:15 Sunny 30 -1 19 -7 64 64 W 7 11 29.92 1013 10 16 N/A
11:35 am 11:35 Sunny 30 -1 19 -7 64 64 W 6 9 29.92 1013 10 16 N/A
11:55 am 11:55 Sunny 32 0 19 -7 60 60 NW 7 11 29.94 1014 10 16 N/A
12:15 pm 12:15 Sunny 32 0 19 -7 60 60 NW 6 9 29.94 1014 10 16 N/A
12:35 pm 12:35 Sunny 32 0 19 -7 60 60 NW 5 7 29.93 1013 10 16 N/A
12:55 pm 12:55 Sunny 34 1 21 -6 60 60 NW 7 11 29.93 1014 10 16 N/A
1:15 pm 13:15 Sunny 34 1 21 -6 60 60 WNW 6 9 29.93 1014 10 16 N/A
1:35 pm 13:35 Sunny 34 1 21 -6 60 60 NW 6 9 29.93 1014 10 16 N/A
1:55 pm 13:55 Sunny 34 1 23 -5 65 65 NW 8 13 29.93 1014 10 16 N/A
2:15 pm 14:15 Sunny 36 2 23 -5 60 60 WNW 8 13 29.93 1013 10 16 N/A
2:35 pm 14:35 Sunny 36 2 23 -5 60 60 NW 9 15 29.94 1014 10 16 N/A
2:55 pm 14:55 Sunny 36 2 23 -5 60 60 WNW 9 15 29.94 1014 10 16 N/A
3:15 pm 15:15 Sunny 36 2 21 -6 56 56 W 9 15 29.95 1014 10 16 N/A
3:35 pm 15:35 Sunny 34 1 21 -6 60 60 WNW 12 19 29.96 1015 10 16 N/A
3:55 pm 15:55 Partly Cloudy 36 2 21 -6 56 56 WNW 13 20 29.97 1015 10 16 N/A
4:15 pm 16:15 Partly Cloudy 34 1 21 -6 60 60 W 13 20 29.98 1015 10 16 N/A
4:35 pm 16:35 Sunny 34 1 21 -6 60 60 NW 9 15 30.00 1016 10 16 N/A
4:55 pm 16:55 Sunny 32 0 21 -6 64 64 W 9 15 30.02 1016 10 16 N/A
5:15 pm 17:15 Sunny 32 0 21 -6 64 64 NW 9 15 30.03 1017 10 16 N/A
5:35 pm 17:35 Sunny 30 -1 19 -7 64 64 NW 9 15 30.04 1017 10 16 N/A
5:55 pm 17:55 Sunny 28 -2 19 -7 69 69 NW 6 9 30.05 1018 10 16 N/A
6:15 pm 18:15 Clear 27 -3 19 -7 74 74 NNW 6 9 30.08 1018 10 16 N/A
6:35 pm 18:35 Clear 27 -3 19 -7 74 74 NNW 8 13 30.10 1019 10 16 N/A
6:55 pm 18:55 Clear 23 -5 19 -7 86 86 NNW 7 11 30.10 1019 10 16 N/A
7:15 pm 19:15 Clear 23 -5 19 -7 86 86 NNW 6 9 30.12 1020 10 16 N/A
7:35 pm 19:35 Clear 23 -5 19 -7 86 86 NNW 6 9 30.13 1020 10 16 N/A
7:55 pm 19:55 Clear 23 -5 19 -7 86 86 NNW 5 7 30.13 1020 10 16 N/A
8:15 pm 20:15 Clear 21 -6 19 -7 93 93 N 3 6 30.14 1021 10 16 N/A
8:35 pm 20:35 Clear 21 -6 18 -8 86 86 NNW 5 7 30.14 1021 10 16 N/A
8:55 pm 20:55 Clear 21 -6 18 -8 86 86 N 5 7 30.14 1021 10 16 N/A
9:15 pm 21:15 Clear 19 -7 18 -8 93 93 NE 5 7 30.13 1020 10 16 N/A
9:35 pm 21:35 Clear 19 -7 18 -8 93 93 Calm 30.13 1020 10 16 N/A
9:55 pm 21:55 Clear 19 -7 18 -8 93 93 Calm 30.15 1021 10 16 N/A
10:15 pm 22:15 Clear 19 -7 18 -8 93 93 W 3 6 30.16 1021 10 16 N/A
10:35 pm 22:35 Clear 19 -7 19 -7 100 100 Calm 30.16 1021 10 16 N/A
10:55 pm 22:55 Clear 21 -6 18 -8 86 86 Calm 30.16 1021 10 16 N/A
11:15 pm 23:15 Clear 19 -7 18 -8 93 93 WNW 3 6 30.16 1021 10 16 N/A
11:35 pm 23:35 Clear 21 -6 18 -8 86 86 Calm 30.16 1021 10 16 N/A
11:55 pm 23:55 Clear 19 -7 19 -7 100 100 W 3 6 30.17 1022 10 16 N/A

Powered by AerisWeather